Weather observations for the past three days for
Stevens Field, Pagosa Springs
Imperial (Metric)
Date Time (mdt) Wind (mph) Vis. (mi.) Weather Sky Cond. Temperature (ºF) Relative Humidity Wind Chill (°F) Heat Index (°F) Pressure Precipitation (in)
Air Dwpt 6 hour altimeter (in) sea level (mb) 1 hr 3 hr 6 hr
Max. Min.
05 17:35 SW 9 G 16 10.00 Fair CLR 80.6 35.6 20% 79 30.29 0.0
05 17:15 SW 9 G 16 10.00 A Few Clouds FEW095 78.8 35.6 21% 78 30.29 0.0
05 16:55 Vrbl 7 10.00 Fair CLR 80.6 37.4 21% 79 30.29 0.0
05 16:35 SW 13 G 17 10.00 Fair CLR 80.6 37.4 21% 79 30.29 0.0
05 16:15 SW 13 G 20 10.00 A Few Clouds FEW100 80.6 37.4 21% 79 30.3 0.0
05 15:55 S 14 G 21 10.00 Fair CLR 78.8 33.8 20% 78 30.3 0.0
05 15:35 W 12 G 18 10.00 A Few Clouds FEW085 80.6 35.6 20% 79 30.31 0.0
05 15:15 S 9 G 16 10.00 Partly Cloudy SCT085 78.8 37.4 23% 78 30.31 0.0
05 14:55 S 8 10.00 Fair CLR 78.8 37.4 23% 78 30.32 0.0
05 14:35 SW 9 G 22 10.00 Fair CLR 78.8 35.6 21% 78 30.32 0.0
05 14:15 S 13 G 17 10.00 Fair CLR 78.8 39.2 24% 78 30.33 0.0
05 13:56 S 9 G 22 10.00 Fair CLR 78.8 41 26% 78 30.34 0.0
05 11:55 N 3 10.00 Fair CLR 75.2 41 75.7 46.2 29% 77 30.37 0.0
05 11:35 Vrbl 3 10.00 Fair CLR 73.4 42.8 33% 30.38 0.0
05 11:15 Vrbl 5 10.00 Fair CLR 73.4 42.8 33% 30.38 0.0
05 10:55 Vrbl 5 10.00 Fair CLR 71.6 42.8 36% 30.39 0.0
05 10:35 S 8 10.00 Fair CLR 69.8 42.8 38% 30.39 0.0
05 10:15 Vrbl 5 10.00 Fair CLR 68 44.6 43% 30.39 0.0
05 09:55 Vrbl 6 10.00 Fair CLR 66.2 42.8 43% 30.38 0.0
05 09:35 S 5 10.00 Fair CLR 66.2 42.8 43% 30.38 0.0
05 09:15 Vrbl 3 10.00 Fair CLR 66.2 42.8 43% 30.38 0.0
05 08:55 Vrbl 1 10.00 Fair CLR 62.6 42.8 49% 30.38 0.0
05 08:35 Calm 10.00 Fair CLR 60.8 42.8 52% 30.38 0.0
05 08:15 Calm 10.00 Fair CLR 57.2 42.8 59% 30.38 0.0
05 07:55 Vrbl 1 10.00 Fair CLR 55.4 42.8 63% 30.38 0.0
05 07:35 S 1 10.00 Fair CLR 51.8 42.8 72% 30.37 0.0
05 07:15 NW 1 10.00 Fair CLR 48.2 41 76% 30.37 0.0
05 06:55 Calm 10.00 Fair CLR 46.4 41 82% 30.36 0.0
05 06:35 NW 2 10.00 Fair CLR 46.4 39.2 76% 30.35 0.0
05 06:15 S 2 10.00 Fair CLR 50 41 71% 30.35 0.0
05 05:55 Calm 10.00 A Few Clouds FEW055 48.2 39.2 56.5 46.6 71% 30.34 0.0
05 05:35 Calm 10.00 Partly Cloudy SCT055 50 41 71% 30.34 0.0
05 05:15 W 2 10.00 A Few Clouds FEW055 48.2 39.2 71% 30.35 0.0
05 04:55 Calm 10.00 Fair CLR 48.2 41 76% 30.35 0.0
05 04:35 SW 1 10.00 Fair CLR 50 41 71% 30.34 0.0
05 04:15 W 2 10.00 Fair CLR 50 41 71% 30.34 0.0
05 03:55 W 3 10.00 Fair CLR 51.8 41 67% 30.34 0.0
05 03:35 NE 3 10.00 Fair CLR 50 39.2 67% 30.34 0.0
05 03:15 NE 3 10.00 Fair CLR 50 39.2 67% 30.34 0.0
05 02:57 N 1 10.00 Fair CLR 50 39.2 67% 30.34 0.0
05 02:35 Calm 10.00 Fair CLR 50 39.2 67% 30.34 0.0
05 02:15 Vrbl 1 10.00 Fair CLR 50 39.2 67% 30.35 0.0
05 01:55 Calm 10.00 Partly Cloudy SCT060 51.8 39.2 62% 30.34 0.0
05 01:35 Calm 10.00 A Few Clouds FEW060 53.6 41 63% 30.34 0.0
05 01:15 Calm 10.00 Fair CLR 51.8 39.2 62% 30.34 0.0
05 00:55 Calm 10.00 Fair CLR 53.6 39.2 58% 30.33 0.0
05 00:35 N 1 10.00 Fair CLR 53.6 39.2 58% 30.33 0.0
05 00:15 NE 2 10.00 Fair CLR 55.4 39.2 55% 30.33 0.0
04 23:55 NW 2 10.00 Fair CLR 55.4 39.2 78.1 55.4 55% 30.33 0.0
04 23:35 NE 3 10.00 Fair CLR 55.4 39.2 55% 30.33 0.0
04 23:16 Calm 10.00 Fair CLR 55.4 39.2 55% 30.32 0.0
04 22:55 N 2 10.00 Fair CLR 57.2 39.2 51% 30.33 0.0
04 22:35 Calm 10.00 Fair CLR 57.2 39.2 51% 30.33 0.0
04 22:15 Vrbl 2 10.00 Fair CLR 57.2 39.2 51% 30.32 0.0
04 21:55 N 2 10.00 Fair CLR 59 39.2 48% 30.32 0.0
04 21:35 N 2 10.00 Fair CLR 59 39.2 48% 30.31 0.0
04 21:15 NW 2 10.00 Fair CLR 60.8 39.2 45% 30.31 0.0
04 20:55 W 3 10.00 Fair CLR 62.6 39.2 42% 30.3 0.0
04 20:35 W 3 10.00 A Few Clouds FEW110 64.4 39.2 40% 30.29 0.0
04 20:15 W 3 10.00 Partly Cloudy SCT110 68 39.2 35% 30.28 0.0
04 19:55 W 5 10.00 A Few Clouds FEW120 69.8 39.2 33% 30.28 0.0
04 19:35 SW 6 10.00 Fair CLR 73.4 39.2 29% 30.28 0.0
04 19:15 SW 8 10.00 Fair CLR 75.2 41 29% 77 30.27 0.0
04 18:55 W 8 10.00 A Few Clouds FEW110 77 41 28% 78 30.27 0.0
04 18:35 SW 9 10.00 Partly Cloudy SCT110 77 41 28% 78 30.27 0.0
04 18:15 SW 8 10.00 Fair CLR 77 41 28% 78 30.27 0.0
04 17:55 SW 12 G 16 10.00 Fair CLR 77 39.2 78.8 70 26% 77 30.27 0.0
04 17:35 SW 12 G 18 10.00 Fair CLR 78.8 41 26% 78 30.27 0.0
04 17:15 SW 13 G 16 10.00 Fair CLR 77 41 28% 78 30.27 0.0
04 16:55 S 10 G 18 10.00 A Few Clouds FEW085 78.8 41 26% 78 30.27 0.0
04 16:35 SW 9 G 17 10.00 A Few Clouds FEW080 FEW100 78.8 41 26% 78 30.27 0.0
04 16:15 SW 10 G 17 10.00 Fair CLR 77 39.2 26% 77 30.28 0.0
04 15:55 SW 8 G 17 10.00 A Few Clouds FEW110 77 41 28% 78 30.28 0.0
04 15:35 S 14 G 23 10.00 A Few Clouds FEW110 78.8 41 26% 78 30.29 0.0
04 15:15 S 13 G 16 10.00 Fair CLR 77 41 28% 78 30.3 0.0
04 14:55 Vrbl 7 G 21 10.00 Fair CLR 77 41 28% 78 30.31 0.0
04 14:35 SW 9 G 17 10.00 A Few Clouds FEW110 75.2 41 29% 77 30.32 0.0
04 14:15 SW 12 G 17 10.00 A Few Clouds FEW110 75.2 42.8 31% 77 30.33 0.0
04 13:55 W 15 G 22 10.00 Partly Cloudy FEW090 SCT110 75.2 42.8 31% 77 30.33 0.0
04 13:35 S 12 G 21 10.00 Fair CLR 75.2 42.8 31% 77 30.34 0.0
04 13:15 SW 13 G 17 10.00 Partly Cloudy FEW070 FEW085 SCT110 73.4 42.8 33% 30.34 0.0
04 12:55 S 12 10.00 Partly Cloudy FEW065 SCT085 73.4 42.8 33% 30.34 0.0
04 12:35 SW 12 G 17 10.00 Mostly Cloudy BKN065 73.4 42.8 33% 30.35 0.0
04 12:15 S 9 G 20 10.00 Mostly Cloudy BKN065 73.4 42.8 33% 30.36 0.0
04 11:55 S 9 10.00 Mostly Cloudy SCT065 BKN075 71.6 42.8 71.2 47.3 36% 30.36 0.0
04 11:35 SW 9 10.00 Partly Cloudy SCT070 SCT080 SCT110 69.8 42.8 38% 30.37 0.0
04 11:15 Vrbl 2 10.00 A Few Clouds FEW070 69.8 44.6 40% 30.37 0.0
04 10:55 Vrbl 2 10.00 Mostly Cloudy FEW050 SCT060 BKN100 68 46.4 46% 30.37 0.0
04 10:35 S 8 10.00 Mostly Cloudy SCT050 BKN100 66.2 44.6 46% 30.36 0.0
04 10:15 Vrbl 3 10.00 Partly Cloudy FEW050 SCT100 68 44.6 43% 30.36 0.0
04 09:55 Vrbl 2 10.00 Mostly Cloudy BKN050 BKN110 64.4 44.6 49% 30.36 0.0
04 09:35 Vrbl 2 10.00 Overcast OVC050 64.4 44.6 49% 30.35 0.0
04 09:15 E 6 10.00 Overcast SCT049 BKN060 OVC065 60.8 44.6 55% 30.35 0.0
04 08:55 NE 3 10.00 Mostly Cloudy BKN060 BKN075 60.8 42.8 52% 30.35 0.0
04 08:35 Vrbl 2 10.00 Overcast BKN060 OVC075 59 44.6 59% 30.35 0.0
04 08:15 Vrbl 2 10.00 Overcast BKN060 OVC075 59 44.6 59% 30.35 0.0
04 07:55 Vrbl 1 10.00 Overcast BKN060 OVC070 57.2 42.8 59% 30.35 0.0
04 07:35 E 2 10.00 Mostly Cloudy BKN070 BKN110 55.4 42.8 63% 30.33 0.0
04 07:15 W 1 10.00 Mostly Cloudy SCT070 BKN090 BKN110 51.8 42.8 72% 30.33 0.0
04 06:55 Calm 10.00 Mostly Cloudy BKN070 BKN090 50 41 71% 30.31 0.0
04 06:35 W 2 10.00 A Few Clouds FEW070 50 41 71% 30.31 0.0
04 06:15 N 2 10.00 Fair CLR 48.2 41 76% 30.3 0.0
04 05:55 N 2 10.00 A Few Clouds FEW065 FEW080 48.2 41 58.3 48 76% 30.3 0.0
04 05:35 NW 1 10.00 Partly Cloudy SCT090 50 41 71% 30.3 0.0
04 05:15 SW 1 10.00 Partly Cloudy SCT090 53.6 39.2 58% 30.3 0.0
04 04:55 NW 2 10.00 Fair CLR 50 39.2 67% 30.29 0.0
04 04:35 NE 1 10.00 Fair CLR 50 39.2 67% 30.29 0.0
04 04:15 NW 2 10.00 Fair CLR 51.8 39.2 62% 30.29 0.0
04 03:55 W 1 10.00 Fair CLR 51.8 39.2 62% 30.29 0.0
04 03:35 NW 3 10.00 Fair CLR 51.8 39.2 62% 30.28 0.0
04 03:15 Calm 10.00 Partly Cloudy SCT080 SCT100 55.4 39.2 55% 30.29 0.0
04 02:55 NW 1 10.00 Mostly Cloudy BKN080 57.2 39.2 51% 30.28 0.0
04 02:35 W 1 10.00 Mostly Cloudy SCT085 BKN090 57.2 39.2 51% 30.29 0.0
04 02:15 N 1 10.00 Overcast BKN075 OVC090 57.2 39.2 51% 30.29 0.0
04 01:55 NE 1 10.00 Overcast BKN080 OVC090 57.2 39.2 51% 30.3 0.0
04 01:35 N 1 10.00 Overcast OVC080 57.2 37.4 48% 30.3 0.0
04 01:15 NE 2 10.00 Overcast BKN080 OVC090 57.2 37.4 48% 30.3 0.0
04 00:55 SE 2 10.00 Overcast OVC090 55.4 37.4 51% 30.3 0.0
04 00:35 Vrbl 1 10.00 Mostly Cloudy BKN080 55.4 37.4 51% 30.3 0.0
04 00:15 Calm 10.00 Partly Cloudy SCT080 55.4 37.4 51% 30.3 0.0
03 23:55 Calm 10.00 Fair CLR 55.4 37.4 76.3 55.9 51% 30.3 0.0
03 23:35 E 5 10.00 A Few Clouds FEW070 FEW100 55.4 35.6 47% 30.29 0.0
03 23:15 NE 3 10.00 A Few Clouds FEW100 57.2 35.6 44% 30.29 0.0
03 22:55 NE 2 10.00 A Few Clouds FEW100 59 35.6 42% 30.29 0.0
03 22:35 NW 2 10.00 Partly Cloudy FEW080 SCT100 60.8 37.4 42% 30.29 0.0
03 22:15 Calm 10.00 Overcast BKN080 OVC100 62.6 37.4 39% 30.29 0.0
03 21:55 Calm 10.00 Mostly Cloudy BKN110 62.6 37.4 39% 30.28 0.0
03 21:35 NW 2 10.00 Fair CLR 62.6 37.4 39% 30.28 0.0
03 21:15 Vrbl 2 10.00 A Few Clouds FEW100 64.4 37.4 37% 30.28 0.0
03 20:55 W 3 10.00 A Few Clouds FEW100 64.4 37.4 37% 30.28 0.0
03 20:35 W 3 10.00 A Few Clouds FEW100 66.2 37.4 35% 30.27 0.0
03 20:15 W 3 10.00 Partly Cloudy SCT100 66.2 35.6 32% 30.27 0.0
03 19:55 W 5 10.00 Fair CLR 69.8 35.6 29% 30.26 0.0
03 19:35 W 6 10.00 Fair CLR 71.6 37.4 29% 30.26 0.0
03 19:15 SW 7 10.00 Fair CLR 73.4 35.6 25% 30.26 0.0
03 18:55 SW 7 10.00 Fair CLR 73.4 35.6 25% 30.26 0.0
03 18:36 SW 9 G 16 10.00 Fair CLR 75.2 35.6 24% 76 30.26 0.0
03 18:15 Vrbl 6 10.00 Fair CLR 75.2 35.6 24% 76 30.26 0.0
03 17:55 SW 10 G 18 10.00 Thunderstorm in Vicinity CLR 75.2 35.6 77.5 69.8 24% 76 30.26 0.0
03 17:35 W 14 G 17 10.00 Fair CLR 77 35.6 22% 77 30.26 0.0
03 17:15 W 9 G 18 10.00 Fair CLR 77 35.6 22% 77 30.26 0.0
03 16:55 W 10 G 18 10.00 Fair CLR 75.2 35.6 24% 76 30.26 0.0
03 16:35 SW 9 G 16 10.00 A Few Clouds FEW075 77 35.6 22% 77 30.27 0.0
03 16:15 SW 12 G 17 10.00 Partly Cloudy SCT075 75.2 37.4 25% 77 30.27 0.0
03 15:55 SW 13 G 22 10.00 A Few Clouds FEW080 75.2 37.4 25% 77 30.28 0.0
03 15:35 SW 12 G 17 10.00 Partly Cloudy SCT080 75.2 37.4 25% 77 30.28 0.0
03 15:15 SW 9 G 21 10.00 Fair CLR 77 39.2 26% 77 30.29 0.0
03 14:55 SW 15 G 23 10.00 Fair CLR 77 37.4 24% 77 30.29 0.0
03 14:35 SW 9 G 23 10.00 A Few Clouds FEW075 FEW085 75.2 37.4 25% 77 30.3 0.0
03 14:15 SW 16 G 23 10.00 Fair CLR 75.2 39.2 27% 77 30.3 0.0
03 13:56 SW 16 G 23 10.00 A Few Clouds FEW075 75.2 37.4 25% 77 30.3 0.0
03 13:35 SW 12 G 16 10.00 A Few Clouds FEW075 73.4 39.2 29% 30.31 0.0
03 13:15 SW 14 G 23 10.00 A Few Clouds FEW075 73.4 39.2 29% 30.32 0.0
03 12:55 S 14 G 22 10.00 A Few Clouds FEW075 73.4 37.4 27% 30.32 0.0
03 12:35 S 10 G 18 10.00 Fair CLR 73.4 39.2 29% 30.33 0.0
03 12:15 SW 14 10.00 Fair CLR 71.6 37.4 29% 30.34 0.0
03 11:55 Vrbl 6 G 18 10.00 A Few Clouds FEW065 69.8 37.4 70.9 44.4 31% 30.35 0.0
03 11:35 S 15 G 21 10.00 Fair CLR 69.8 39.2 33% 30.35 0.0
03 11:15 SW 16 G 24 10.00 Fair CLR 69.8 39.2 33% 30.35 0.0
03 10:55 SW 13 G 18 10.00 Fair CLR 68 39.2 35% 30.35 0.0
03 10:35 SW 13 G 20 10.00 Fair CLR 68 39.2 35% 30.35 0.0
03 10:15 Vrbl 6 10.00 Fair CLR 66.2 41 40% 30.36 0.0
03 09:55 S 7 10.00 Fair CLR 64.4 42.8 46% 30.35 0.0
03 09:35 E 7 10.00 Fair CLR 64.4 42.8 46% 30.35 0.0
03 09:15 Vrbl 3 10.00 Fair CLR 62.6 42.8 49% 30.36 0.0
03 08:55 NE 3 10.00 Fair CLR 60.8 42.8 52% 30.36 0.0
03 08:35 E 3 10.00 Fair CLR 59 41 51% 30.36 0.0
03 08:15 E 3 10.00 Fair CLR 57.2 41 55% 30.35 0.0
03 07:55 NE 2 10.00 Fair CLR 55.4 41 59% 30.35 0.0
03 07:35 Calm 10.00 Fair CLR 50 41 71% 30.34 0.0
03 07:15 Calm 10.00 Fair CLR 48.2 39.2 71% 30.34 0.0
03 06:55 N 1 10.00 Fair CLR 46.4 39.2 76% 30.33 0.0
03 06:35 NW 1 10.00 Fair CLR 46.4 39.2 76% 30.32 0.0
03 06:15 N 1 10.00 Fair CLR 46.4 39.2 76% 30.32 0.0
03 05:55 N 2 10.00 Fair CLR 44.6 37.4 58.5 45 76% 30.32 0.0
03 05:35 Calm 10.00 Fair CLR 46.4 39.2 76% 30.32 0.0
03 05:15 NW 1 10.00 Fair CLR 46.4 39.2 76% 30.31 0.0
03 04:55 S 1 10.00 Fair CLR 48.2 39.2 71% 30.31 0.0
03 04:35 W 2 10.00 Fair CLR 48.2 39.2 71% 30.31 0.0
03 04:15 NW 2 10.00 Fair CLR 48.2 39.2 71% 30.31 0.0
03 03:55 E 2 10.00 A Few Clouds FEW060 48.2 39.2 71% 30.32 0.0
03 03:35 SW 2 10.00 Partly Cloudy SCT060 50 39.2 67% 30.31 0.0
03 03:15 NW 2 10.00 A Few Clouds FEW060 50 39.2 67% 30.32 0.0
03 02:55 W 1 10.00 Fair CLR 50 39.2 67% 30.31 0.0
03 02:35 Vrbl 1 10.00 Fair CLR 50 39.2 67% 30.31 0.0
03 02:15 NW 2 10.00 Fair CLR 51.8 41 67% 30.31 0.0
03 01:55 W 2 10.00 Fair CLR 53.6 39.2 58% 30.32 0.0
03 01:35 NW 2 10.00 Fair CLR 51.8 39.2 62% 30.32 0.0
03 01:15 W 1 10.00 Fair CLR 53.6 39.2 58% 30.32 0.0
03 00:55 NW 2 10.00 Fair CLR 53.6 39.2 58% 30.32 0.0
03 00:35 NW 1 10.00 Fair CLR 55.4 39.2 55% 30.32 0.0
03 00:15 Calm 10.00 Partly Cloudy SCT080 SCT095 57.2 39.2 51% 30.32 0.0
02 23:55 Calm 10.00 Overcast OVC080 57.2 41 75.7 57.6 55% 30.32 0.0
02 23:35 NW 2 10.00 Overcast OVC090 59 41 51% 30.32 0.0
02 23:15 NW 1 10.00 Mostly Cloudy BKN100 57.2 41 55% 30.32 0.0
02 22:55 Calm 10.00 Overcast OVC090 59 41 51% 30.32 0.0
02 22:35 Calm 10.00 Mostly Cloudy BKN090 60.8 41 48% 30.32 0.0
02 22:15 NW 1 10.00 Mostly Cloudy BKN100 60.8 41 48% 30.33 0.0
02 21:55 W 1 10.00 Overcast BKN090 OVC110 62.6 41 45% 30.32 0.0
02 21:35 W 3 10.00 Mostly Cloudy BKN100 BKN110 64.4 41 43% 30.32 0.0
02 21:15 SW 2 10.00 Overcast OVC100 68 41 38% 30.31 0.0
02 20:56 W 5 10.00 Overcast OVC100 68 41 38% 30.31 0.0
02 20:35 NW 8 10.00 Mostly Cloudy BKN100 68 41 38% 30.3 0.0
02 20:15 SW 6 10.00 A Few Clouds FEW110 68 41 38% 30.29 0.0
02 19:55 W 7 10.00 Partly Cloudy FEW100 SCT120 69.8 41 35% 30.29 0.0
02 19:35 W 8 10.00 Mostly Cloudy BKN110 71.6 39.2 31% 30.29 0.0
02 19:15 W 8 10.00 Overcast FEW080 OVC110 71.6 39.2 31% 30.28 0.0
02 18:55 W 10 10.00 Mostly Cloudy FEW080 BKN110 73.4 39.2 29% 30.28 0.0
02 18:35 SW 8 10.00 Mostly Cloudy BKN110 73.4 39.2 29% 30.28 0.0
02 18:15 SW 10 G 16 10.00 A Few Clouds FEW110 73.4 37.4 27% 30.28 0.0
02 17:55 SW 14 G 18 10.00 Partly Cloudy FEW080 SCT110 75.2 37.4 78.1 71.4 25% 77 30.28 0.0
Date Time (mdt) Wind (mph) Vis. (mi.) Weather Sky Cond. Air Dwpt Max. Min. Relative Humidity Wind Chill (°F) Heat Index (°F) altimeter (in) sea level (mb) 1 hr 3 hr 6 hr
6 hour
Temperature (ºF) Pressure Precipitation (in)